Change the Weather History Date:

Monday, December 19, 2011

  Actual Average Record
Temperature  
Mean Temperature 45 °F -  
Max Temperature 57 °F 49 °F 72 °F (2006)
Min Temperature 33 °F 32 °F 19 °F (1996)
Degree Days  
Heating Degree Days 20    
Moisture  
Dew Point 29 °F    
Average Humidity 55    
Maximum Humidity 82    
Minimum Humidity 28    
Precipitation  
Precipitation 0.00 in - - ()
Sea Level Pressure  
Sea Level Pressure 30.29 in    
Wind  
Wind Speed 3 mph (SW)    
Max Wind Speed 13 mph    
Max Gust Speed -    
Visibility 10 miles    
Events      
Averages and records for this station are not official NWS values.
T = Trace of Precipitation, MM = Missing Value Source: NWS Daily Summary

Daily Weather History Graph

Daily Weather History Graph

Search for Another Location

Airport or City:

Trip Planner

Search our weather history database for the weather conditions in past years. The results will help you decide how hot, cold, wet, or windy it might be!

Date:

Astronomy

Dec. 19, 2011 Rise Set
Actual Time 7:31 AM EST 5:20 PM EST
Civil Twilight 7:03 AM EST 5:49 PM EST
Nautical Twilight 6:32 AM EST 6:20 PM EST
Astronomical Twilight 6:01 AM EST 6:51 PM EST
Moon 1:49 AM EST (12/19) 1:11 PM EST (12/19)
Length of Visible Light 10h 45m
Length of Day
9h 49m
Waning Crescent, 31% of the Moon is Illuminated
Dec 19
Waning Crescent
Dec 24
New
Jan 1
First Quarter
Jan 9
Full
Jan 16
Last Quarter

Hourly Weather History & Observations

Time (EST) Temp. Windchill Dew Point Humidity Pressure Visibility Wind Dir Wind Speed Gust Speed Precip Events Conditions
12:53 AM 42.1 °F - 26.1 °F 53% 30.31 in 10.0 mi Calm Calm - N/A   Clear
1:53 AM 39.0 °F - 28.9 °F 67% 30.30 in 10.0 mi Calm Calm - N/A   Clear
2:53 AM 37.9 °F - 28.0 °F 68% 30.32 in 10.0 mi Calm Calm - N/A   Clear
3:53 AM 36.0 °F - 28.0 °F 73% 30.30 in 10.0 mi Calm Calm - N/A   Clear
4:53 AM 35.1 °F - 28.0 °F 76% 30.31 in 10.0 mi Calm Calm - N/A   Clear
5:53 AM 34.0 °F - 27.0 °F 75% 30.31 in 10.0 mi Calm Calm - N/A   Clear
6:53 AM 35.1 °F - 27.0 °F 72% 30.32 in 10.0 mi Calm Calm - N/A   Clear
7:53 AM 33.1 °F 27.7 °F 28.0 °F 82% 30.35 in 10.0 mi West 5.8 mph - N/A   Clear
8:53 AM 39.0 °F 34.8 °F 30.0 °F 70% 30.35 in 10.0 mi WSW 5.8 mph - N/A   Clear
9:53 AM 45.0 °F 41.8 °F 28.9 °F 53% 30.36 in 10.0 mi SW 5.8 mph - N/A   Clear
10:53 AM 51.1 °F - 26.1 °F 38% 30.36 in 10.0 mi WSW 10.4 mph - N/A   Clear
11:53 AM 53.1 °F - 27.0 °F 37% 30.34 in 10.0 mi SSW 12.7 mph - N/A   Clear
1:53 PM 57.0 °F - 26.1 °F 30% 30.26 in 10.0 mi SW 10.4 mph - N/A   Clear
2:53 PM 57.9 °F - 25.0 °F 28% 30.24 in 10.0 mi SW 10.4 mph - N/A   Clear
3:53 PM 57.0 °F - 28.9 °F 34% 30.24 in 10.0 mi SSW 10.4 mph - N/A   Clear
4:53 PM 55.0 °F - 30.0 °F 38% 30.25 in 10.0 mi SSW 8.1 mph - N/A   Clear
5:53 PM 53.1 °F - 30.9 °F 43% 30.25 in 10.0 mi SSW 5.8 mph - N/A   Clear
6:53 PM 51.1 °F - 30.9 °F 46% 30.26 in 10.0 mi SSW 3.5 mph - N/A   Clear
7:53 PM 51.1 °F - 32.0 °F 48% 30.27 in 10.0 mi Calm Calm - N/A   Clear
8:53 PM 48.9 °F - 33.1 °F 54% 30.27 in 10.0 mi SW 3.5 mph - N/A   Clear
9:53 PM 46.9 °F - 35.1 °F 63% 30.26 in 10.0 mi WSW 4.6 mph - N/A   Clear
10:53 PM 45.0 °F 43.5 °F 34.0 °F 65% 30.25 in 10.0 mi West 3.5 mph - N/A   Clear
11:53 PM 46.9 °F - 33.1 °F 59% 30.23 in 10.0 mi Calm Calm - N/A   Mostly Cloudy